Location: Middleville
(41.0560°N, 74.8630°W)
Time: 15:18:18
(UTC-05:00)

Tiangong 2 - Visible Passes

Search period start: 23 November 2017 00:00
Search period end: 03 December 2017 00:00
Orbit: 386 x 392 km, 42.8° (Epoch: 23 November)

Date Brightness Start Highest point End Pass type
(mag) Time Alt. Az. Time Alt. Az. Time Alt. Az.
25 Nov 4.3 05:44:04 10° SSE 05:45:17 12° SE 05:46:31 10° ESE visible
26 Nov 2.8 06:20:35 10° SW 06:23:30 34° SSE 06:26:28 10° E visible
27 Nov 3.5 05:22:57 10° SSW 05:25:26 21° SSE 05:27:56 10° E visible
28 Nov 4.4 04:28:08 12° SE 04:28:08 12° SE 04:28:51 10° ESE visible
28 Nov 1.6 06:00:38 10° WSW 06:03:47 58° SSE 06:06:56 10° E visible
29 Nov 2.3 05:05:30 36° SSE 05:05:37 36° SSE 05:08:35 10° E visible
30 Nov 1.0 05:42:40 31° WSW 05:44:04 88° S 05:47:17 10° ENE visible
01 Dec 3.3 04:47:23 26° E 04:47:23 26° E 04:48:58 10° E visible
01 Dec 1.2 06:19:42 11° W 06:22:41 61° N 06:25:53 10° E visible
02 Dec 1.0 05:24:18 70° NNW 05:24:21 70° N 05:27:33 10° ENE visible
